Weather History for Parsons, KS

Change the Weather History Date:

Thursday, December 5, 2013

  Actual Average Record
Temperature  
Mean Temperature 24 °F -  
Max Temperature 27 °F 48 °F 73 °F (1998)
Min Temperature 21 °F 31 °F 10 °F (2002)
Degree Days  
Heating Degree Days 41    
Moisture  
Dew Point 9 °F    
Average Humidity 57    
Maximum Humidity 66    
Minimum Humidity 50    
Precipitation  
Precipitation 0.00 in - - ()
Sea Level Pressure  
Sea Level Pressure 30.28 in    
Wind  
Wind Speed 12 mph (North)    
Max Wind Speed 17 mph    
Max Gust Speed 28 mph    
Visibility 10 miles    
Events      
Averages and records for this station are not official NWS values.
T = Trace of Precipitation, MM = Missing Value Source: NWS Daily Summary

Daily Weather History Graph

Daily Weather History Graph

Search for Another Location

Airport:

Trip Planner

Search our weather history database for the weather conditions in past years. The results will help you decide how hot, cold, wet, or windy it might be!

Date:

Astronomy

Dec. 05, 2013 Rise Set
Actual Time 7:21 AM CST 5:04 PM CST
Civil Twilight 6:52 AM CST 5:33 PM CST
Nautical Twilight 6:20 AM CST 6:05 PM CST
Astronomical Twilight 5:48 AM CST 6:37 PM CST
Moon 9:44 AM CST (12/5) 8:23 PM CST (12/5)
Length of Visible Light 10h 40m
Length of Day
9h 42m
Waxing Crescent, 11% of the Moon is Illuminated
Dec 5
Waxing Crescent
Dec 9
First Quarter
Dec 17
Full
Dec 25
Last Quarter
Jan 1
New

Hourly Weather History & Observations

Time (CST) Temp. Windchill Dew Point Humidity Pressure Visibility Wind Dir Wind Speed Gust Speed Precip Events Conditions
12:52 AM 27.0 °F 16.1 °F 14.0 °F 58% 30.12 in 10.0 mi NNW 12.7 mph 21.9 mph N/A   Scattered Clouds
1:52 AM 27.0 °F 15.6 °F 14.0 °F 58% 30.13 in 10.0 mi NNW 13.8 mph 21.9 mph N/A   Overcast
2:52 AM 25.0 °F 12.6 °F 10.9 °F 55% 30.17 in 10.0 mi North 15.0 mph 27.6 mph N/A   Overcast
3:52 AM 24.1 °F 10.6 °F 12.0 °F 60% 30.19 in 10.0 mi North 17.3 mph 26.5 mph N/A   Overcast
4:25 AM 23.0 °F 10.6 °F 12.9 °F 65% 30.19 in 10.0 mi NNW 13.8 mph 21.9 mph N/A   Overcast
4:36 AM 21.9 °F 8.7 °F 12.0 °F 66% 30.19 in 10.0 mi North 15.0 mph 24.2 mph N/A   Mostly Cloudy
4:52 AM 21.9 °F 8.7 °F 10.9 °F 63% 30.23 in 10.0 mi North 15.0 mph 25.3 mph N/A   Scattered Clouds
5:52 AM 21.0 °F 9.3 °F 10.9 °F 65% 30.25 in 10.0 mi North 11.5 mph - N/A   Clear
6:52 AM 21.0 °F 9.3 °F 9.0 °F 60% 30.27 in 10.0 mi North 11.5 mph - N/A   Clear
7:52 AM 21.0 °F 9.3 °F 9.0 °F 60% 30.27 in 10.0 mi North 11.5 mph 20.7 mph N/A   Clear
8:52 AM 21.9 °F 11.7 °F 9.0 °F 58% 30.30 in 10.0 mi North 9.2 mph - N/A   Clear
9:52 AM 23.0 °F 13.9 °F 7.0 °F 50% 30.31 in 10.0 mi North 8.1 mph 17.3 mph N/A   Clear
10:52 AM 23.0 °F 11.1 °F 7.0 °F 50% 30.32 in 10.0 mi North 12.7 mph 20.7 mph N/A   Clear
11:52 AM 24.1 °F 15.2 °F 9.0 °F 53% 30.32 in 10.0 mi North 8.1 mph - N/A   Clear
12:52 PM 24.1 °F 12.5 °F 8.1 °F 51% 30.28 in 10.0 mi North 12.7 mph - N/A   Scattered Clouds
1:52 PM 23.0 °F 12.4 °F 8.1 °F 53% 30.29 in 10.0 mi NNW 10.4 mph - N/A   Overcast
2:52 PM 23.0 °F 12.4 °F 7.0 °F 50% 30.29 in 10.0 mi North 10.4 mph - N/A   Overcast
3:52 PM 21.9 °F 13.4 °F 7.0 °F 53% 30.30 in 10.0 mi North 6.9 mph - N/A   Overcast
4:52 PM 21.9 °F 13.4 °F 7.0 °F 53% 30.33 in 10.0 mi North 6.9 mph - N/A   Overcast
5:52 PM 21.0 °F 9.3 °F 8.1 °F 57% 30.32 in 10.0 mi North 11.5 mph - N/A   Overcast
6:52 PM 21.9 °F 12.5 °F 9.0 °F 58% 30.35 in 10.0 mi North 8.1 mph - N/A   Overcast
7:52 PM 21.9 °F 10.4 °F 8.1 °F 55% 30.34 in 10.0 mi North 11.5 mph - N/A   Overcast
8:52 PM 21.9 °F 11.7 °F 8.1 °F 55% 30.35 in 10.0 mi North 9.2 mph - N/A   Overcast
9:52 PM 21.9 °F 10.4 °F 8.1 °F 55% 30.37 in 10.0 mi North 11.5 mph - N/A   Overcast
10:52 PM 21.0 °F 12.4 °F 7.0 °F 55% 30.37 in 10.0 mi North 6.9 mph - N/A   Overcast
11:52 PM 21.9 °F 11.7 °F 8.1 °F 55% 30.39 in 10.0 mi North 9.2 mph 18.4 mph N/A   Overcast